User: anonymous   Login
Location: Berg
(47.2344°N, 9.5296°E)
Time: 21:06:32
(UTC+00:00)
Language:

XW-2C - Orbit

View from above orbital plane
View from above orbital plane
View from above satellite
View from above satellite

Ground track
Ground track

The orbit data is extracted from the following two-line orbital elements,

1 40906U 15049H   21335.51488549  .00001980  00000-0  10270-3 0  9997
2 40906  97.4917 335.8776 0013658 334.0706 123.6108 15.17251503342890
Epoch (UTC): 01 December 2021 12:21:26
Eccentricity: 0.0013658
inclination: 97.4917°
perigee height: 505 km
apogee height: 523 km
right ascension of ascending node: 335.8776°
argument of perigee: 334.0706°
revolutions per day: 15.17251503
mean anomaly at epoch: 123.6108°
orbit number at epoch: 34289

The dashed part of the orbit path shows where the satellite is in the earth's shadow,  

DLR